Regional Weather Roundup
Issued by NWS Albany, NY

Current Version | Previous Version | Text Only | Print | Product List | Glossary On
Versions: 1 2 3 4 5 6 7 8 9 10 11 12 13 14 15 16 17 18 19 20 21 22 23 24 25 26 27 28 29 30 31 32 33 34 35 36 37 38 39 40 41 42 43 44 45 46 47 48 49 50
000 ASUS41 KALY 250410 RWRALY NEW YORK STATE HOURLY WEATHER ROUNDUP NATIONAL WEATHER SERVICE ALBANY NY 1200 AM EDT MON JUL 25 2016 NOTE: "FAIR" INDICATES FEW OR NO CLOUDS BELOW 12,000 FEET WITH NO SIGNIFICANT WEATHER AND/OR NO OBSTRUCTIONS TO VISIBILITY. NYZ032-033-038>043-046>054-057>066-NYZ062>081-082-084-250500- EAST CITY SKY/WX TMP DP RH WIND PRES REMARKS ALBANY CLOUDY 73 60 63 CALM 29.97F GLENS FALLS PTCLDY 65 61 87 CALM 29.98S POUGHKEEPSIE CLOUDY 76 65 68 CALM 29.95F NEWBURGH CLEAR 77 68 73 VRB5 29.99S MONTGOMERY MOCLDY 70 66 87 CALM 29.97S WHITE PLAINS PTCLDY 73 67 81 CALM 29.98F ISLIP MOCLDY 75 71 87 S6 29.98F NEW YORK CITY MOCLDY 85 68 56 SW6 29.96S CENTRAL PARK PTCLDY 81 67 62 MISG 29.99F $$ NYZ005>009-017-018-044>046-055-056-250500- CENTRAL CITY SKY/WX TMP DP RH WIND PRES REMARKS FULTON CLOUDY 75 62 64 CALM 29.94F SYRACUSE CLOUDY 75 61 61 SE7 29.94S ROME CLOUDY 71 64 78 E5 29.97F ELMIRA PTCLDY 70 59 68 CALM 29.96F BINGHAMTON CLOUDY 71 61 70 NE8 30.00F MONTICELLO CLOUDY 70 63 78 NE5 30.04S $$ NYZ026>034-041>043-087-250500- NORTH CITY SKY/WX TMP DP RH WIND PRES REMARKS WATERTOWN CLOUDY 70 56 61 CALM 29.93F FORT DRUM NOT AVBL MASSENA CLOUDY 67 59 75 CALM 29.94F SARANAC LAKE CLOUDY 59 55 87 CALM 30.00F PLATTSBURGH CLOUDY 63 60 90 CALM 29.97F $$ NYZ001>004-010>016-019>021-085-250500- WEST CITY SKY/WX TMP DP RH WIND PRES REMARKS NIAGARA FALLS CLEAR 75 67 76 S8 29.92F BUFFALO PTCLDY 74 61 63 S6 29.94F DUNKIRK CLEAR 74 70 87 S7 29.94F JAMESTOWN PTCLDY 70 66 88 S7 30.02S WELLSVILLE CLOUDY 73 63 70 W7 30.05F ROCHESTER PTCLDY 73 64 73 SW3 29.94F PENN YAN CLEAR 69 63 81 S3 29.97F $$ KEY WCI = WIND CHILL INDEX VSB = VISIBILITY HX = HEAT INDEX $$

USA.gov is the U.S. government's official web portal to all federal, state and local government web resources and services.